This demonstration page uses our WeatherBlox Daily Observations layout. Learn more.

Hourly Observations for January 18, 2020

Temp ( °F °C ) Dew Point ( °F °C ) Humidity (%) Winds ( mph kmh ) Pressure ( in mb ) Visibility ( mi km ) Precip ( " mm )
12:15 am 00:15 Clear 27 -3 19 -7 74 74 Calm 30.71 1040 10 16.0934 0 0
12:35 am 00:35 Clear 27 -3 21 -6 80 80 Calm 30.7 1040 10 16.0934 0 0
12:55 am 00:55 Clear 27 -3 19 -7 74 74 Calm 30.69 1039 10 16.0934 0 0
1:15 am 01:15 Clear 27 -3 19 -7 74 74 Calm 30.69 1039 10 16.0934 0 0
1:35 am 01:35 Clear 27 -3 19 -7 74 74 Calm 30.68 1039 10 16.0934 0 0
1:55 am 01:55 Clear 27 -3 19 -7 74 74 Calm 30.67 1039 10 16.0934 0 0
2:15 am 02:15 Clear 27 -3 21 -6 80 80 Calm 30.67 1039 10 16.0934 0 0
2:35 am 02:35 Clear 27 -3 21 -6 80 80 Calm 30.67 1039 10 16.0934 0 0
2:55 am 02:55 Partly Cloudy 27 -3 21 -6 80 80 Calm 30.67 1039 10 16.0934 0 0
3:15 am 03:15 Clear 27 -3 21 -6 80 80 Calm 30.67 1039 10 16.0934 0 0
3:35 am 03:35 Partly Cloudy 28 -2 19 -7 69 69 Calm 30.66 1038 10 16.0934 0 0
3:55 am 03:55 Partly Cloudy 28 -2 18 -8 64 64 Calm 30.66 1038 10 16.0934 0 0
4:15 am 04:15 Partly Cloudy 28 -2 19 -7 69 69 Calm 30.66 1038 10 16.0934 0 0
4:35 am 04:35 Cloudy 28 -2 19 -7 69 69 S 6 9 30.65 1038 10 16.0934 0 0
4:55 am 04:55 Cloudy 30 -1 18 -8 59 59 S 7 11 30.63 1037 10 16.0934 0 0
5:15 am 05:15 Cloudy 30 -1 18 -8 59 59 SSE 8 13 30.61 1037 10 16.0934 0 0
5:35 am 05:35 Cloudy 30 -1 18 -8 59 59 ESE 7 11 30.58 1036 10 16.0934 0 0
5:55 am 05:55 Cloudy 30 -1 16 -9 55 55 SSE 8 13 30.58 1036 10 16.0934 0 0
6:15 am 06:15 Cloudy 28 -2 19 -7 69 69 S 13 20 30.61 1036 7 11.26538 0 0
6:35 am 06:35 Cloudy 27 -3 25 -4 93 93 SSW 8 13 30.6 1036 1.5 2.41401 0 0
6:55 am 06:55 Cloudy 27 -3 27 -3 100 100 S 6 9 30.59 1036 10 16.0934 0 0
7:15 am 07:15 Cloudy 27 -3 27 -3 100 100 S 7 11 30.59 1036 10 16.0934 0 0
7:35 am 07:35 Cloudy 27 -3 27 -3 100 100 S 8 13 30.57 1035 10 16.0934 0 0
7:55 am 07:55 Cloudy 27 -3 27 -3 100 100 SSE 3 6 30.56 1035 10 16.0934 0 0
8:15 am 08:15 Cloudy 27 -3 27 -3 100 100 S 9 15 30.56 1035 10 16.0934 0 0
8:35 am 08:35 Cloudy 28 -2 27 -3 93 93 S 12 19 30.55 1034 10 16.0934 0 0
8:55 am 08:55 Cloudy 28 -2 27 -3 93 93 S 10 17 30.53 1034 10 16.0934 0 0
9:15 am 09:15 Cloudy 28 -2 27 -3 93 93 S 12 19 30.53 1034 10 16.0934 0 0
9:35 am 09:35 Cloudy 28 -2 27 -3 93 93 S 14 22 30.51 1033 10 16.0934 0 0
9:55 am 09:55 Cloudy 28 -2 27 -3 93 93 S 12 19 30.49 1032 10 16.0934 0 0
10:15 am 10:15 Cloudy 30 -1 27 -3 86 86 S 12 19 30.48 1032 10 16.0934 0 0
10:35 am 10:35 Cloudy 30 -1 27 -3 86 86 SSE 13 20 30.46 1032 10 16.0934 0 0
10:55 am 10:55 Cloudy 30 -1 27 -3 86 86 S 15 24 30.44 1031 10 16.0934 0 0
11:15 am 11:15 Cloudy 30 -1 27 -3 86 86 S 9 15 30.42 1030 7 11.26538 0 0
11:35 am 11:35 Cloudy 30 -1 28 -2 93 93 S 12 19 30.39 1029 7 11.26538 0 0
11:55 am 11:55 Cloudy 30 -1 28 -2 93 93 S 13 20 30.37 1029 2.5 4.02335 0 0
12:15 pm 12:15 Cloudy 30 -1 28 -2 93 93 S 13 20 30.33 1027 5 8.0467 0 0
12:35 pm 12:35 Cloudy 30 -1 28 -2 93 93 S 14 22 30.31 1027 10 16.0934 0 0
12:55 pm 12:55 Cloudy 30 -1 30 -1 100 100 S 9 15 30.29 1026 10 16.0934 0 0
1:15 pm 13:15 Cloudy 32 0 30 -1 93 93 SSE 9 15 30.26 1025 10 16.0934 0 0
1:35 pm 13:35 Cloudy 32 0 30 -1 93 93 SSE 12 19 30.24 1024 10 16.0934 0 0
1:55 pm 13:55 Cloudy 32 0 30 -1 93 93 S 13 20 30.21 1023 10 16.0934 0 0
2:15 pm 14:15 Cloudy 32 0 30 -1 93 93 S 10 17 30.2 1023 10 16.0934 0 0
2:35 pm 14:35 Cloudy 32 0 28 -2 87 87 S 13 20 30.18 1022 10 16.0934 0 0
2:55 pm 14:55 Cloudy 32 0 30 -1 93 93 S 9 15 30.17 1022 5 8.0467 0 0
3:15 pm 15:15 Cloudy 32 0 30 -1 93 93 S 10 17 30.17 1022 4 6.43736 0 0
3:35 pm 15:35 Cloudy 32 0 32 0 100 100 S 12 19 30.15 1021 3 4.82802 0 0
3:55 pm 15:55 Cloudy 32 0 32 0 100 100 S 10 17 30.14 1021 2.5 4.02335 0 0
4:15 pm 16:15 Cloudy 32 0 32 0 100 100 S 8 13 30.1 1019 2 3.21868 0 0
4:35 pm 16:35 Cloudy 32 0 32 0 100 100 S 12 19 30.11 1020 2.5 4.02335 0 0
4:55 pm 16:55 Cloudy 32 0 32 0 100 100 SSW 10 17 30.09 1019 7 11.26538 0 0
5:15 pm 17:15 Cloudy 32 0 32 0 100 100 S 14 22 30.07 1018 10 16.0934 0 0
5:35 pm 17:35 Cloudy 32 0 32 0 100 100 S 13 20 30.04 1017 10 16.0934 0 0
5:55 pm 17:55 Cloudy 32 0 32 0 100 100 S 15 24 30.02 1017 10 16.0934 0 0
6:15 pm 18:15 Cloudy 32 0 32 0 100 100 SSW 15 24 30.01 1016 10 16.0934 0 0
6:35 pm 18:35 Cloudy 32 0 32 0 100 100 SSW 12 19 30.01 1016 10 16.0934 0 0
6:55 pm 18:55 Cloudy 32 0 32 0 100 100 SSW 12 19 29.99 1016 10 16.0934 0 0
7:15 pm 19:15 Cloudy 32 0 32 0 100 100 SSW 15 24 29.97 1015 10 16.0934 0 0
7:35 pm 19:35 Cloudy 32 0 32 0 100 100 SSW 13 20 29.97 1015 10 16.0934 0.01 0.254
7:55 pm 19:55 Cloudy 32 0 32 0 100 100 SSW 12 19 29.96 1015 10 16.0934 0.05 1.27
8:15 pm 20:15 Cloudy 32 0 32 0 100 100 SSW 9 15 29.95 1014 10 16.0934 0.05 1.27
8:35 pm 20:35 Cloudy 32 0 32 0 100 100 SSW 10 17 29.93 1014 10 16.0934 0.07 1.778
8:55 pm 20:55 Cloudy 32 0 32 0 100 100 SSW 10 17 29.91 1013 10 16.0934 0.08 2.032
9:15 pm 21:15 Cloudy 32 0 32 0 100 100 SSW 8 13 29.89 1012 10 16.0934 0 0
9:35 pm 21:35 Cloudy 32 0 32 0 100 100 SSW 12 19 29.87 1012 10 16.0934 0.02 0.508
9:55 pm 21:55 Cloudy 34 1 34 1 100 100 SSW 12 19 29.85 1011 10 16.0934 0.03 0.762
10:15 pm 22:15 Cloudy 34 1 34 1 100 100 SSW 12 19 29.85 1011 10 16.0934 0.02 0.508
10:35 pm 22:35 Cloudy 34 1 34 1 100 100 SSW 8 13 29.83 1010 10 16.0934 0.04 1.016
10:55 pm 22:55 Cloudy 36 2 36 2 100 100 SW 8 13 29.82 1010 10 16.0934 0.05 1.27
11:15 pm 23:15 Cloudy 36 2 36 2 100 100 SSW 7 11 29.82 1010 10 16.0934 0.01 0.254
11:35 pm 23:35 Cloudy 36 2 36 2 100 100 SW 7 11 29.8 1009 10 16.0934 0.01 0.254
11:55 pm 23:55 Cloudy 36 2 36 2 100 100 SW 7 11 29.79 1009 10 16.0934 0.02 0.508

Powered by AerisWeather